Regional Weather Roundup
Issued by NWS

Home | Current Version | Previous Version | Graphics & Text | Print | Product List | Glossary On
Versions: 1 2 3 4 5 6 7 8 9 10 11 12 13 14 15 16 17 18 19 20 21 22 23 24 25 26 27 28 29 30 31 32 33 34 35 36 37 38 39 40 41 42 43 44 45 46 47 48 49 50
000
ASUS43 KDMX 251601
RWRIA

WEATHER ROUNDUP FOR IOWA
NATIONAL WEATHER SERVICE DES MOINES IA
1100 AM CDT MON SEP 25 2017

NOTE: "FAIR" INDICATES FEW OR NO CLOUDS BELOW 12,000 FEET WITH NO
SIGNIFICANT WEATHER AND/OR OBSTRUCTIONS TO VISIBILITY.

* - THESE STATIONS ARE NOT NWS STATIONS...THUS NOT UNDER NWS
QUALITY CONTROL.  THEY ALSO DO NOT REPORT WEATHER SUCH
AS PRECIPITATION OR FOG.

IAZ001>003-012>014-020>022-031>034-043>046-251700-
   NORTHWEST IOWA

CITY           SKY/WX    TMP DP  RH WIND       PRES   REMARKS
CARROLL *      CLOUDY    66  66 100 E7        29.97F
CHEROKEE *     CLOUDY    57  57 100 NE6       30.00S
DENISON *      CLOUDY    66  64  94 E3        29.98R
LE MARS *      CLOUDY    57  55  94 N9        30.01R
ORANGE CITY *  CLOUDY    57  55  94 NE8       30.01F
SHELDON *      CLOUDY    55  52  88 NE9       30.01S
SIOUX CITY     LGT RAIN  58  58 100 N9        29.98F
SPENCER        LGT RAIN  56  54  93 N9        30.01F
STORM LAKE *   LGT RAIN  59  57  94 N9        30.00R
$$

IAZ055>058-069>071-079>083-090>094-251700-
   SOUTHWEST IOWA

CITY           SKY/WX    TMP DP  RH WIND       PRES   REMARKS
ATLANTIC *     PTSUNNY   70  66  88 NE10      29.95F
AUDUBON *      CLOUDY    66  64  94 NE7       29.97F
CLARINDA *     MOSUNNY   77  68  73 VRB5      29.95S
COUNCIL BLFS * CLOUDY    64  64 100 NE6       29.96R
CRESTON *      MOSUNNY   79  66  65 CALM      29.96S HX  81
HARLAN  *      CLOUDY    70  64  83 NE12      29.98S
LAMONI         SUNNY     78  67  68 VRB5      29.95S HX  80
RED OAK *      PTSUNNY   73  68  83 NE7       29.94F
SHENANDOAH *   PTSUNNY   75  66  73 CALM      29.94S
$$

IAZ047>049-059>061-072>074-084-251700-
   CENTRAL IOWA

CITY           SKY/WX    TMP DP  RH WIND       PRES   REMARKS
AMES           SUNNY     78  68  71 NE3       29.95S HX  80
ANKENY *       SUNNY     77  68  73 CALM      29.95F
BOONE *        MOSUNNY   73  66  78 NW9       29.96S
CHARITON *     SUNNY     79  68  69 VRB5      29.95S HX  81
DES MOINES     MOSUNNY   79  67  66 SE5       29.93F HX  81
GRINNELL*      SUNNY     79  66  63 S5        29.97S HX  81
KNOXVILLE *    SUNNY     79  64  61 CALM      29.94S HX  81
MARSHALLTOWN   SUNNY     79  67  66 SE6       29.95F HX  81
NEWTON *       SUNNY     79  66  65 VRB6      29.95F HX  81
PELLA *        SUNNY     81  65  58 SE3       29.96S HX  82
PERRY *        PTSUNNY   74  69  84 N5        29.96F
$$

IAZ004>006-015-016-023>025-035-036-251700-
   NORTH CENTRAL IOWA

CITY           SKY/WX    TMP DP  RH WIND       PRES   REMARKS
ALGONA *       CLOUDY    63  63 100 NE9       29.97F
CLARION *      CLOUDY    66  66 100 N7        29.98S
ESTHERVILLE    CLOUDY    55  55 100 N10       30.00R
FORT DODGE *   CLOUDY    63  62  97 NE5       29.99R
MASON CITY     CLOUDY    67  63  87 N8        29.99S
FOREST CITY *  CLOUDY    66  63  88 NE6       29.98F
WEBSTER CITY * CLOUDY    66  64  94 NE7       29.95F
IOWA FALLS *     N/A     73  68  82 E7        29.97S
$$

IAZ007>011-017>019-026>030-037>042-050>054-066-251700-
   NORTHEAST IOWA

CITY           SKY/WX    TMP DP  RH WIND       PRES   REMARKS
CEDAR RAPIDS   SUNNY     81  64  56 S6        29.96S HX  82
CHARLES CITY * CLOUDY    70  68  94 CALM      29.97R FOG
CLINTON *      SUNNY    N/A N/A N/A S5        29.99F
DECORAH *      MOSUNNY   79  66  65 S7        29.95F HX  81
DUBUQUE        SUNNY     81  65  58 S7        29.99S HX  83
MONTICELLO *   SUNNY     84  64  51 VRB3      29.97S HX  86
OELWEIN *      MOSUNNY   82  66  57 SE6       29.97S HX  85
WATERLOO       PTSUNNY   77  64  64 NW9       29.95R
$$

IAZ064-065-067-068-078-251700-
   EAST CENTRAL IOWA

CITY           SKY/WX    TMP DP  RH WIND       PRES   REMARKS
DAVENPORT      SUNNY     81  65  58 VRB3      30.00S HX  83
IOWA CITY      SUNNY     83  66  56 CALM      29.98S HX  85
MUSCATINE *    SUNNY     82  66  57 CALM      29.97S HX  85
QUAD CITIES    SUNNY     81  66  60 CALM      29.97F HX  83
$$

IAZ062-063-075>077-085>089-095>099-251700-
   SOUTHEAST IOWA

CITY           SKY/WX    TMP DP  RH WIND       PRES   REMARKS
BURLINGTON     PTSUNNY   82  68  62 S7        29.98S HX  85
FAIRFIELD *    MOSUNNY   81  63  54 CALM      29.97S HX  82
FORT MADISON * PTSUNNY   82  66  57 S5        29.99S HX  85
KEOKUK *       SUNNY     82  66  57 SW10      29.98R HX  85
OSKALOOSA *      N/A     82  63  52 S3        29.96F HX  83
OTTUMWA        CLOUDY    79  66  64 CALM      29.96S HX  81
WASHINGTON *   SUNNY     82  66  57 S5        29.98S HX  85
$$

ABBREVIATIONS USED IN REMARKS
   TC - TEMPERATURES IN CELSIUS
  WCI - WIND CHILL INDEX
   HX - HEAT INDEX
  VSB - VISIBILITY
$$





USA.gov is the U.S. government's official web portal to all federal, state and local government web resources and services.